Location: Waco, TX
(31.5480°N, 97.1670°W)
Time: 21:58:52
(UTC-05:00)

ISS - Pass Details

Date: 16 September 2018
Orbit: 403 x 408 km, 51.6° (Epoch: 25 September)

Event Time Altitude Azimuth Distance (km) Brightness Sun altitude
Rises 06:26:34 0° 319° (NW) 2,320 - -10.7°
Exits shadow 06:26:57 - 319° (NW) 2,161 -0.4 -10.7°
Reaches altitude 10° 06:28:40 10° 323° (NW) 1,457 -1.3 -10.3°
Maximum altitude 06:31:54 58° 43° (NE) 473 -3.2 -9.6°
Drops below altitude 10° 06:35:06 10° 124° (SE) 1,447 -0.3 -8.9°
Sets 06:37:11 0° 128° (SE) 2,303 0.7 -8.5°
